SUR4014 SAEZ-SCEL

Flight info

Callsign SUR4014
Flight time 1h 47m
Altitude 34000
Route TORUL1 URINO UL405 TOSOR UT687 UMKAL UMKAL7C
Aircraft B738/M-SDE2E3FGHIRWXY/LB1

Departure

Time 2026-05-04 19:25
Airport Ezeiza International Airport - Ministro Pistarini (SAEZ)

Arrival

Time 2026-05-04 21:12
Airport Comodoro Arturo Merino Benítez International Airport (SCEL)
Time Latitude Longitude Altitude Speed Heading
2026-05-04 18:44 -34.81113 -58.53676 72 ft 0 kts 253°
2026-05-04 19:09 -34.81111 -58.53669 72 ft 2 kts 252°
2026-05-04 19:09 -34.81106 -58.53650 62 ft 2 kts 253°
2026-05-04 19:10 -34.81101 -58.53631 65 ft 2 kts 255°
2026-05-04 19:10 -34.81097 -58.53611 64 ft 2 kts 255°
2026-05-04 19:10 -34.81093 -58.53592 67 ft 2 kts 252°
2026-05-04 19:10 -34.81087 -58.53573 62 ft 2 kts 238°
2026-05-04 19:11 -34.81073 -58.53564 62 ft 2 kts 178°
2026-05-04 19:11 -34.81057 -58.53567 63 ft 2 kts 166°
2026-05-04 19:11 -34.81042 -58.53572 67 ft 2 kts 162°
2026-05-04 19:11 -34.81037 -58.53574 67 ft 0 kts 162°
2026-05-04 19:15 -34.81041 -58.53572 67 ft 2 kts 162°
2026-05-04 19:15 -34.81055 -58.53567 63 ft 2 kts 162°
2026-05-04 19:15 -34.81070 -58.53561 70 ft 2 kts 163°
2026-05-04 19:15 -34.81089 -58.53554 65 ft 4 kts 163°
2026-05-04 19:16 -34.81138 -58.53543 67 ft 10 kts 184°
2026-05-04 19:16 -34.81215 -58.53587 69 ft 13 kts 187°
2026-05-04 19:16 -34.81306 -58.53588 70 ft 13 kts 184°
2026-05-04 19:16 -34.81394 -58.53602 67 ft 13 kts 188°
2026-05-04 19:17 -34.81477 -58.53630 72 ft 12 kts 201°
2026-05-04 19:17 -34.81550 -58.53682 72 ft 12 kts 219°
2026-05-04 19:17 -34.81611 -58.53748 66 ft 12 kts 219°
2026-05-04 19:17 -34.81685 -58.53759 66 ft 11 kts 153°
2026-05-04 19:18 -34.81753 -58.53715 69 ft 11 kts 155°
2026-05-04 19:18 -34.81819 -58.53678 70 ft 6 kts 155°
2026-05-04 19:19 -34.81832 -58.53671 72 ft 7 kts 155°
2026-05-04 19:19 -34.81897 -58.53609 66 ft 16 kts 126°
2026-05-04 19:20 -34.81938 -58.53459 67 ft 20 kts 103°
2026-05-04 19:20 -34.81967 -58.53300 63 ft 19 kts 102°
2026-05-04 19:20 -34.81995 -58.53153 62 ft 14 kts 105°
2026-05-04 19:20 -34.82018 -58.53043 72 ft 13 kts 103°
2026-05-04 19:21 -34.82040 -58.52938 63 ft 13 kts 105°
2026-05-04 19:21 -34.82063 -58.52835 72 ft 12 kts 104°
2026-05-04 19:21 -34.82083 -58.52735 67 ft 12 kts 100°
2026-05-04 19:21 -34.82098 -58.52635 68 ft 12 kts 102°
2026-05-04 19:22 -34.82118 -58.52538 72 ft 13 kts 104°
2026-05-04 19:22 -34.82144 -58.52413 72 ft 18 kts 104°
2026-05-04 19:22 -34.82178 -58.52248 72 ft 21 kts 103°
2026-05-04 19:22 -34.82212 -58.52080 64 ft 20 kts 104°
2026-05-04 19:23 -34.82244 -58.51918 69 ft 19 kts 103°
2026-05-04 19:23 -34.82293 -58.51783 66 ft 16 kts 157°
2026-05-04 19:23 -34.82346 -58.51788 67 ft 0 kts 191°
2026-05-04 19:23 -34.82348 -58.51788 67 ft 3 kts 191°
2026-05-04 19:24 -34.82398 -58.51800 66 ft 9 kts 191°
2026-05-04 19:24 -34.82468 -58.51823 69 ft 12 kts 208°
2026-05-04 19:24 -34.82517 -58.51916 68 ft 15 kts 264°
2026-05-04 19:24 -34.82470 -58.52219 64 ft 70 kts 284°
2026-05-04 19:25 -34.82318 -58.53063 72 ft 132 kts 282°
2026-05-04 19:25 -34.82063 -58.54337 169 ft 174 kts 284°
2026-05-04 19:25 -34.81782 -58.55781 1004 ft 167 kts 284°
2026-05-04 19:25 -34.81546 -58.57093 1892 ft 160 kts 284°
2026-05-04 19:26 -34.81297 -58.58537 2352 ft 188 kts 276°
2026-05-04 19:26 -34.81629 -58.60157 2627 ft 219 kts 239°
2026-05-04 19:26 -34.82613 -58.61684 3060 ft 235 kts 234°
2026-05-04 19:26 -34.83728 -58.63169 3711 ft 241 kts 229°
2026-05-04 19:27 -34.84979 -58.64662 4155 ft 261 kts 226°
2026-05-04 19:27 -34.86255 -58.66069 4856 ft 267 kts 226°
2026-05-04 19:27 -34.87611 -58.67527 5468 ft 250 kts 226°
2026-05-04 19:27 -34.88953 -58.68942 5875 ft 265 kts 225°
2026-05-04 19:28 -34.89918 -58.69965 5951 ft 277 kts 225°
2026-05-04 19:28 -34.91358 -58.71484 6700 ft 276 kts 225°
2026-05-04 19:28 -34.92831 -58.73912 7807 ft 266 kts 259°
2026-05-04 19:28 -34.92795 -58.76130 8542 ft 265 kts 283°
2026-05-04 19:29 -34.92522 -58.77587 9026 ft 268 kts 281°
2026-05-04 19:29 -34.92148 -58.79840 9732 ft 274 kts 280°
2026-05-04 19:29 -34.91782 -58.82145 10294 ft 284 kts 280°
2026-05-04 19:29 -34.91397 -58.84608 10456 ft 307 kts 279°
2026-05-04 19:30 -34.90988 -58.87258 10623 ft 329 kts 279°
2026-05-04 19:30 -34.90554 -58.90076 10811 ft 347 kts 279°
2026-05-04 19:30 -34.90103 -58.93002 11332 ft 354 kts 279°
2026-05-04 19:30 -34.89649 -58.95954 12025 ft 355 kts 279°
2026-05-04 19:31 -34.89194 -58.98904 12747 ft 355 kts 279°
2026-05-04 19:31 -34.88739 -59.01861 13430 ft 356 kts 278°
2026-05-04 19:31 -34.88282 -59.04832 14030 ft 358 kts 278°
2026-05-04 19:31 -34.87822 -59.07820 14609 ft 360 kts 278°
2026-05-04 19:32 -34.87359 -59.10817 15199 ft 361 kts 278°
2026-05-04 19:32 -34.86895 -59.13826 15774 ft 363 kts 278°
2026-05-04 19:32 -34.86426 -59.16853 16326 ft 364 kts 278°
2026-05-04 19:32 -34.85956 -59.19891 16882 ft 366 kts 278°
2026-05-04 19:33 -34.85483 -59.22942 17417 ft 368 kts 278°
2026-05-04 19:33 -34.85005 -59.26015 17929 ft 370 kts 278°
2026-05-04 19:33 -34.84524 -59.29104 18404 ft 372 kts 278°
2026-05-04 19:33 -34.84047 -59.32163 18839 ft 374 kts 278°
2026-05-04 19:34 -34.83552 -59.35328 19268 ft 377 kts 278°
2026-05-04 19:34 -34.83061 -59.38466 19683 ft 379 kts 277°
2026-05-04 19:34 -34.82566 -59.41624 20104 ft 381 kts 277°
2026-05-04 19:34 -34.82068 -59.44796 20526 ft 383 kts 277°
2026-05-04 19:35 -34.81566 -59.47985 20930 ft 385 kts 277°
2026-05-04 19:35 -34.81067 -59.51148 21327 ft 387 kts 277°
2026-05-04 19:35 -34.80558 -59.54373 21719 ft 389 kts 277°
2026-05-04 19:35 -34.80045 -59.57614 22104 ft 391 kts 277°
2026-05-04 19:36 -34.79528 -59.60874 22474 ft 393 kts 277°
2026-05-04 19:36 -34.79008 -59.64147 22849 ft 395 kts 277°
2026-05-04 19:36 -34.78484 -59.67441 23204 ft 398 kts 277°
2026-05-04 19:36 -34.77957 -59.70748 23547 ft 400 kts 277°
2026-05-04 19:37 -34.77426 -59.74072 23884 ft 400 kts 277°
2026-05-04 19:37 -34.76893 -59.77401 24195 ft 402 kts 277°
2026-05-04 19:37 -34.76357 -59.80748 24465 ft 404 kts 277°
2026-05-04 19:37 -34.75818 -59.84107 24746 ft 406 kts 277°
2026-05-04 19:38 -34.75275 -59.87478 25064 ft 407 kts 278°
2026-05-04 19:38 -34.74731 -59.90857 25355 ft 408 kts 278°
2026-05-04 19:38 -34.74183 -59.94252 25631 ft 410 kts 278°
2026-05-04 19:38 -34.73631 -59.97662 25912 ft 412 kts 278°
2026-05-04 19:39 -34.73077 -60.01078 26190 ft 413 kts 278°
2026-05-04 19:39 -34.72520 -60.04510 26457 ft 415 kts 278°
2026-05-04 19:39 -34.71960 -60.07954 26710 ft 416 kts 278°
2026-05-04 19:39 -34.71397 -60.11408 26961 ft 418 kts 278°
2026-05-04 19:40 -34.70831 -60.14878 27210 ft 419 kts 278°
2026-05-04 19:40 -34.70262 -60.18356 27467 ft 420 kts 278°
2026-05-04 19:40 -34.69691 -60.21839 27782 ft 420 kts 278°
2026-05-04 19:40 -34.69119 -60.25316 28164 ft 418 kts 278°
2026-05-04 19:41 -34.68550 -60.28773 28563 ft 417 kts 278°
2026-05-04 19:41 -34.67981 -60.32221 28947 ft 415 kts 278°
2026-05-04 19:41 -34.67413 -60.35658 29291 ft 415 kts 278°
2026-05-04 19:41 -34.66846 -60.39086 29630 ft 414 kts 278°
2026-05-04 19:42 -34.66278 -60.42516 29964 ft 414 kts 278°
2026-05-04 19:42 -34.65710 -60.45937 30280 ft 413 kts 278°
2026-05-04 19:42 -34.65144 -60.49342 30618 ft 411 kts 278°
2026-05-04 19:42 -34.64578 -60.52733 30957 ft 409 kts 278°
2026-05-04 19:43 -34.64014 -60.56114 31275 ft 408 kts 278°
2026-05-04 19:43 -34.63451 -60.59482 31587 ft 406 kts 278°
2026-05-04 19:43 -34.62889 -60.62834 31901 ft 405 kts 278°
2026-05-04 19:43 -34.62329 -60.66175 32228 ft 403 kts 278°
2026-05-04 19:44 -34.61768 -60.69509 32537 ft 402 kts 278°
2026-05-04 19:44 -34.61209 -60.72827 32844 ft 400 kts 278°
2026-05-04 19:44 -34.60652 -60.76131 33152 ft 399 kts 278°
2026-05-04 19:44 -34.60096 -60.79422 33445 ft 398 kts 278°
2026-05-04 19:45 -34.59540 -60.82707 33725 ft 397 kts 278°
2026-05-04 19:45 -34.58985 -60.85985 33867 ft 398 kts 278°
2026-05-04 19:45 -34.58425 -60.89286 33869 ft 401 kts 278°
2026-05-04 19:46 -34.57290 -60.95964 33873 ft 406 kts 278°
2026-05-04 19:46 -34.56142 -61.02679 33870 ft 407 kts 278°
2026-05-04 19:47 -34.54988 -61.09406 33864 ft 408 kts 278°
2026-05-04 19:47 -34.53837 -61.16093 33866 ft 407 kts 278°
2026-05-04 19:48 -34.52668 -61.22858 33868 ft 407 kts 278°
2026-05-04 19:48 -34.51514 -61.29521 33863 ft 406 kts 279°
2026-05-04 19:49 -34.50349 -61.36219 33861 ft 406 kts 279°
2026-05-04 19:49 -34.49184 -61.42900 33866 ft 405 kts 279°
2026-05-04 19:50 -34.48015 -61.49578 33860 ft 405 kts 279°
2026-05-04 19:50 -34.46844 -61.56247 33860 ft 404 kts 279°
2026-05-04 19:51 -34.45670 -61.62905 33858 ft 404 kts 279°
2026-05-04 19:51 -34.44493 -61.69561 33859 ft 404 kts 279°
2026-05-04 19:52 -34.43313 -61.76213 33857 ft 404 kts 279°
2026-05-04 19:52 -34.42130 -61.82861 33859 ft 404 kts 279°
2026-05-04 19:53 -34.40945 -61.89499 33856 ft 403 kts 279°
2026-05-04 19:53 -34.39755 -61.96140 33858 ft 403 kts 279°
2026-05-04 19:54 -34.38562 -62.02772 33854 ft 403 kts 279°
2026-05-04 19:54 -34.37367 -62.09400 33851 ft 403 kts 279°
2026-05-04 19:55 -34.36168 -62.16026 33853 ft 403 kts 279°
2026-05-04 19:55 -34.34967 -62.22641 33849 ft 403 kts 279°
2026-05-04 19:56 -34.33762 -62.29257 33850 ft 402 kts 279°
2026-05-04 19:56 -34.32555 -62.35860 33846 ft 402 kts 279°
2026-05-04 19:57 -34.31346 -62.42458 33846 ft 402 kts 279°
2026-05-04 19:57 -34.30133 -62.49053 33842 ft 401 kts 279°
2026-05-04 19:58 -34.28918 -62.55639 33844 ft 401 kts 279°
2026-05-04 19:58 -34.27700 -62.62221 33840 ft 401 kts 280°
2026-05-04 19:59 -34.26479 -62.68796 33843 ft 401 kts 280°
2026-05-04 19:59 -34.25255 -62.75371 33842 ft 401 kts 280°
2026-05-04 20:00 -34.24028 -62.81935 33840 ft 400 kts 280°
2026-05-04 20:00 -34.22798 -62.88497 33840 ft 400 kts 280°
2026-05-04 20:01 -34.21565 -62.95057 33841 ft 400 kts 280°
2026-05-04 20:01 -34.20328 -63.01616 33839 ft 400 kts 280°
2026-05-04 20:02 -34.19088 -63.08172 33835 ft 400 kts 280°
2026-05-04 20:02 -34.17844 -63.14725 33835 ft 400 kts 281°
2026-05-04 20:03 -34.16605 -63.21233 33834 ft 400 kts 281°
2026-05-04 20:03 -34.15354 -63.27782 33834 ft 400 kts 281°
2026-05-04 20:04 -34.14100 -63.34331 33832 ft 400 kts 281°
2026-05-04 20:04 -34.12842 -63.40878 33834 ft 400 kts 281°
2026-05-04 20:05 -34.11581 -63.47425 33831 ft 401 kts 281°
2026-05-04 20:05 -34.10314 -63.53976 33834 ft 401 kts 281°
2026-05-04 20:06 -34.09045 -63.60525 33827 ft 401 kts 281°
2026-05-04 20:06 -34.07771 -63.67076 33829 ft 401 kts 281°
2026-05-04 20:07 -34.06493 -63.73627 33831 ft 401 kts 281°
2026-05-04 20:07 -34.05210 -63.80182 33825 ft 402 kts 281°
2026-05-04 20:08 -34.03924 -63.86737 33826 ft 402 kts 281°
2026-05-04 20:08 -34.02632 -63.93298 33822 ft 402 kts 281°
2026-05-04 20:09 -34.01337 -63.99859 33819 ft 403 kts 281°
2026-05-04 20:09 -34.00037 -64.06425 33821 ft 403 kts 281°
2026-05-04 20:10 -33.98733 -64.12990 33813 ft 403 kts 282°
2026-05-04 20:10 -33.97425 -64.19556 33821 ft 403 kts 282°
2026-05-04 20:11 -33.96113 -64.26125 33814 ft 403 kts 282°
2026-05-04 20:11 -33.94798 -64.32689 33814 ft 403 kts 282°
2026-05-04 20:12 -33.93479 -64.39255 33810 ft 403 kts 282°
2026-05-04 20:12 -33.92166 -64.45774 33812 ft 403 kts 282°
2026-05-04 20:13 -33.90856 -64.52337 33813 ft 403 kts 281°
2026-05-04 20:13 -33.89751 -64.58946 33814 ft 403 kts 279°
2026-05-04 20:14 -33.88704 -64.65568 33814 ft 403 kts 279°
2026-05-04 20:14 -33.87638 -64.72187 33813 ft 403 kts 279°
2026-05-04 20:15 -33.86553 -64.78801 33804 ft 403 kts 279°
2026-05-04 20:15 -33.85458 -64.85413 33804 ft 403 kts 279°
2026-05-04 20:16 -33.84359 -64.92021 33812 ft 403 kts 280°
2026-05-04 20:16 -33.83434 -64.97559 33817 ft 403 kts 280°
2026-05-04 20:17 -33.82334 -65.04124 33814 ft 403 kts 280°
2026-05-04 20:17 -33.81224 -65.10731 33814 ft 403 kts 280°
2026-05-04 20:18 -33.80110 -65.17338 33821 ft 403 kts 280°
2026-05-04 20:18 -33.78992 -65.23945 33829 ft 403 kts 280°
2026-05-04 20:19 -33.77870 -65.30552 33833 ft 404 kts 280°
2026-05-04 20:19 -33.76744 -65.37161 33835 ft 404 kts 280°
2026-05-04 20:20 -33.75614 -65.43775 33830 ft 404 kts 280°
2026-05-04 20:20 -33.74481 -65.50380 33826 ft 404 kts 280°
2026-05-04 20:21 -33.73403 -65.56643 33822 ft 404 kts 281°
2026-05-04 20:21 -33.71691 -65.66553 33809 ft 404 kts 281°
2026-05-04 20:22 -33.70545 -65.73157 33798 ft 404 kts 281°
2026-05-04 20:22 -33.69396 -65.79757 33790 ft 404 kts 281°
2026-05-04 20:23 -33.68242 -65.86366 33790 ft 404 kts 281°
2026-05-04 20:23 -33.67085 -65.92968 33786 ft 404 kts 281°
2026-05-04 20:24 -33.65923 -65.99577 33787 ft 405 kts 281°
2026-05-04 20:24 -33.64758 -66.06185 33784 ft 405 kts 281°
2026-05-04 20:25 -33.63588 -66.12794 33780 ft 405 kts 281°
2026-05-04 20:25 -33.62467 -66.19110 33783 ft 405 kts 281°
2026-05-04 20:26 -33.61288 -66.25725 33775 ft 406 kts 281°
2026-05-04 20:26 -33.60105 -66.32348 33783 ft 406 kts 281°
2026-05-04 20:27 -33.58917 -66.38974 33786 ft 407 kts 281°
2026-05-04 20:27 -33.57724 -66.45609 33781 ft 407 kts 281°
2026-05-04 20:28 -33.56525 -66.52251 33779 ft 407 kts 281°
2026-05-04 20:28 -33.55324 -66.58888 33772 ft 407 kts 281°
2026-05-04 20:29 -33.54118 -66.65525 33766 ft 407 kts 281°
2026-05-04 20:29 -33.52910 -66.72158 33767 ft 407 kts 281°
2026-05-04 20:30 -33.51697 -66.78793 33767 ft 407 kts 281°
2026-05-04 20:30 -33.50482 -66.85419 33772 ft 407 kts 281°
2026-05-04 20:31 -33.49262 -66.92053 33766 ft 408 kts 281°
2026-05-04 20:31 -33.48038 -66.98686 33770 ft 408 kts 281°
2026-05-04 20:32 -33.46810 -67.05322 33765 ft 408 kts 281°
2026-05-04 20:32 -33.45576 -67.11966 33771 ft 409 kts 281°
2026-05-04 20:33 -33.44338 -67.18611 33771 ft 409 kts 281°
2026-05-04 20:33 -33.43096 -67.25256 33773 ft 409 kts 281°
2026-05-04 20:34 -33.41859 -67.31856 33773 ft 409 kts 281°
2026-05-04 20:34 -33.40601 -67.38547 33772 ft 409 kts 281°
2026-05-04 20:35 -33.39348 -67.45192 33773 ft 410 kts 282°
2026-05-04 20:35 -33.38099 -67.51793 33773 ft 410 kts 282°
2026-05-04 20:36 -33.36837 -67.58442 33777 ft 410 kts 282°
2026-05-04 20:36 -33.35571 -67.65095 33774 ft 410 kts 282°
2026-05-04 20:37 -33.34300 -67.71752 33772 ft 411 kts 282°
2026-05-04 20:37 -33.33025 -67.78409 33777 ft 411 kts 282°
2026-05-04 20:38 -33.31744 -67.85072 33773 ft 411 kts 282°
2026-05-04 20:38 -33.30458 -67.91746 33781 ft 414 kts 282°
2026-05-04 20:39 -33.29156 -67.98490 33783 ft 418 kts 282°
2026-05-04 20:39 -33.27839 -68.05284 33774 ft 420 kts 282°
2026-05-04 20:40 -33.26514 -68.12101 33773 ft 421 kts 282°
2026-05-04 20:40 -33.25184 -68.18919 33778 ft 422 kts 282°
2026-05-04 20:41 -33.23850 -68.25740 33776 ft 421 kts 282°
2026-05-04 20:41 -33.22514 -68.32554 33776 ft 421 kts 282°
2026-05-04 20:42 -33.21175 -68.39357 33780 ft 421 kts 282°
2026-05-04 20:42 -33.19836 -68.46140 33768 ft 417 kts 282°
2026-05-04 20:43 -33.18509 -68.52848 33779 ft 414 kts 282°
2026-05-04 20:43 -33.17183 -68.59526 33782 ft 413 kts 282°
2026-05-04 20:44 -33.15854 -68.66188 33780 ft 413 kts 282°
2026-05-04 20:44 -33.14519 -68.72856 33787 ft 413 kts 282°
2026-05-04 20:45 -33.13179 -68.79531 33787 ft 415 kts 282°
2026-05-04 20:45 -33.11840 -68.86188 33797 ft 416 kts 283°
2026-05-04 20:46 -33.10482 -68.92916 33788 ft 418 kts 283°
2026-05-04 20:46 -33.09117 -68.99664 33792 ft 419 kts 283°
2026-05-04 20:47 -33.07745 -69.06423 33801 ft 420 kts 283°
2026-05-04 20:47 -33.06366 -69.13194 33826 ft 420 kts 283°
2026-05-04 20:48 -33.04988 -69.19942 33817 ft 412 kts 283°
2026-05-04 20:48 -33.03652 -69.26461 33859 ft 402 kts 283°
2026-05-04 20:49 -33.02321 -69.32946 33518 ft 403 kts 283°
2026-05-04 20:49 -33.01658 -69.36165 33129 ft 398 kts 283°
2026-05-04 20:49 -33.01003 -69.39344 32780 ft 392 kts 283°
2026-05-04 20:50 -33.00355 -69.42482 32320 ft 388 kts 283°
2026-05-04 20:50 -32.99715 -69.45582 31946 ft 383 kts 283°
2026-05-04 20:50 -32.99079 -69.48650 31545 ft 381 kts 283°
2026-05-04 20:50 -32.98448 -69.51703 31125 ft 377 kts 283°
2026-05-04 20:51 -32.97822 -69.54719 30729 ft 373 kts 283°
2026-05-04 20:51 -32.97200 -69.57711 30353 ft 372 kts 283°
2026-05-04 20:51 -32.96581 -69.60689 29927 ft 369 kts 282°
2026-05-04 20:51 -32.95964 -69.63634 29439 ft 364 kts 283°
2026-05-04 20:52 -32.95357 -69.66542 29059 ft 361 kts 282°
2026-05-04 20:52 -32.94756 -69.69427 28665 ft 357 kts 282°
2026-05-04 20:52 -32.94158 -69.72293 28226 ft 355 kts 282°
2026-05-04 20:52 -32.93573 -69.75095 27853 ft 353 kts 282°
2026-05-04 20:53 -32.92981 -69.77923 27399 ft 351 kts 282°
2026-05-04 20:53 -32.92393 -69.80724 27037 ft 347 kts 282°
2026-05-04 20:53 -32.91810 -69.83502 26619 ft 345 kts 282°
2026-05-04 20:53 -32.91230 -69.86262 26234 ft 343 kts 282°
2026-05-04 20:54 -32.90653 -69.89006 25808 ft 341 kts 282°
2026-05-04 20:54 -32.90077 -69.91738 25412 ft 340 kts 282°
2026-05-04 20:54 -32.89503 -69.94460 25007 ft 339 kts 282°
2026-05-04 20:54 -32.88929 -69.97178 24595 ft 338 kts 282°
2026-05-04 20:55 -32.88361 -69.99893 24180 ft 338 kts 280°
2026-05-04 20:55 -32.87971 -70.02652 23677 ft 339 kts 276°
2026-05-04 20:55 -32.87720 -70.05451 23091 ft 342 kts 274°
2026-05-04 20:55 -32.87501 -70.08260 22562 ft 341 kts 275°
2026-05-04 20:56 -32.87278 -70.11048 22144 ft 337 kts 275°
2026-05-04 20:56 -32.87046 -70.13827 21641 ft 338 kts 275°
2026-05-04 20:56 -32.86804 -70.16612 21115 ft 338 kts 276°
2026-05-04 20:56 -32.86553 -70.19388 20656 ft 338 kts 275°
2026-05-04 20:57 -32.86299 -70.22167 20159 ft 337 kts 276°
2026-05-04 20:57 -32.86044 -70.24926 19689 ft 334 kts 276°
2026-05-04 20:57 -32.85789 -70.27661 19211 ft 332 kts 277°
2026-05-04 20:57 -32.85536 -70.30384 18710 ft 326 kts 277°
2026-05-04 20:58 -32.85286 -70.33055 18225 ft 323 kts 277°
2026-05-04 20:58 -32.85037 -70.35732 17563 ft 329 kts 277°
2026-05-04 20:58 -32.84783 -70.38445 16987 ft 332 kts 278°
2026-05-04 20:58 -32.84525 -70.41191 16378 ft 335 kts 278°
2026-05-04 20:59 -32.84267 -70.43960 15765 ft 339 kts 278°
2026-05-04 20:59 -32.84006 -70.46755 15167 ft 341 kts 278°
2026-05-04 20:59 -32.83741 -70.49569 14572 ft 344 kts 278°
2026-05-04 20:59 -32.83473 -70.52405 13994 ft 347 kts 278°
2026-05-04 21:00 -32.83205 -70.55251 13450 ft 344 kts 278°
2026-05-04 21:00 -32.82941 -70.58047 12956 ft 337 kts 278°
2026-05-04 21:00 -32.82681 -70.60786 12492 ft 330 kts 278°
2026-05-04 21:00 -32.82428 -70.63438 12049 ft 324 kts 278°
2026-05-04 21:01 -32.82174 -70.66104 11616 ft 318 kts 278°
2026-05-04 21:01 -32.82248 -70.68673 11161 ft 317 kts 258°
2026-05-04 21:01 -32.83084 -70.71071 10829 ft 314 kts 240°
2026-05-04 21:01 -32.84508 -70.73019 10539 ft 312 kts 227°
2026-05-04 21:02 -32.86098 -70.74753 10202 ft 307 kts 225°
2026-05-04 21:02 -32.87655 -70.76430 10048 ft 294 kts 226°
2026-05-04 21:02 -32.89131 -70.78038 9791 ft 287 kts 226°
2026-05-04 21:02 -32.90604 -70.79658 9349 ft 285 kts 226°
2026-05-04 21:03 -32.92231 -70.80995 8954 ft 287 kts 204°
2026-05-04 21:03 -32.94159 -70.81555 8692 ft 285 kts 189°
2026-05-04 21:03 -32.96080 -70.81822 8580 ft 269 kts 188°
2026-05-04 21:03 -32.97881 -70.82054 8443 ft 252 kts 188°
2026-05-04 21:04 -32.99573 -70.82273 8272 ft 239 kts 186°
2026-05-04 21:04 -33.01264 -70.82285 7758 ft 242 kts 178°
2026-05-04 21:04 -33.02925 -70.82187 7417 ft 237 kts 177°
2026-05-04 21:04 -33.04550 -70.82088 7196 ft 231 kts 178°
2026-05-04 21:05 -33.06128 -70.82002 6965 ft 224 kts 178°
2026-05-04 21:05 -33.07151 -70.81948 6803 ft 220 kts 178°
2026-05-04 21:05 -33.08682 -70.81869 6565 ft 215 kts 177°
2026-05-04 21:05 -33.10139 -70.81793 6333 ft 209 kts 177°
2026-05-04 21:06 -33.11572 -70.81718 6102 ft 205 kts 177°
2026-05-04 21:06 -33.13007 -70.81642 5907 ft 202 kts 177°
2026-05-04 21:06 -33.14371 -70.81571 5699 ft 195 kts 177°
2026-05-04 21:06 -33.15705 -70.81501 5501 ft 190 kts 177°
2026-05-04 21:07 -33.17017 -70.81432 5299 ft 187 kts 177°
2026-05-04 21:07 -33.18295 -70.81364 5162 ft 182 kts 177°
2026-05-04 21:07 -33.19544 -70.81300 5011 ft 175 kts 177°
2026-05-04 21:07 -33.20759 -70.81236 4781 ft 173 kts 177°
2026-05-04 21:08 -33.21944 -70.81173 4543 ft 168 kts 178°
2026-05-04 21:08 -33.23092 -70.81104 4285 ft 162 kts 177°
2026-05-04 21:08 -33.24203 -70.81044 4057 ft 158 kts 178°
2026-05-04 21:08 -33.25295 -70.80996 3853 ft 157 kts 178°
2026-05-04 21:09 -33.26377 -70.80933 3668 ft 155 kts 178°
2026-05-04 21:09 -33.27447 -70.80879 3477 ft 153 kts 178°
2026-05-04 21:09 -33.28511 -70.80830 3276 ft 152 kts 178°
2026-05-04 21:09 -33.29557 -70.80768 3102 ft 149 kts 178°
2026-05-04 21:10 -33.30592 -70.80718 2878 ft 148 kts 177°
2026-05-04 21:10 -33.31611 -70.80661 2712 ft 145 kts 177°
2026-05-04 21:10 -33.32630 -70.80621 2486 ft 148 kts 176°
2026-05-04 21:10 -33.33649 -70.80565 2319 ft 145 kts 175°
2026-05-04 21:11 -33.34657 -70.80515 2114 ft 145 kts 176°
2026-05-04 21:11 -33.35668 -70.80457 1915 ft 146 kts 176°
2026-05-04 21:11 -33.36671 -70.80399 1709 ft 144 kts 176°
2026-05-04 21:11 -33.37649 -70.80348 1560 ft 134 kts 176°
2026-05-04 21:12 -33.38437 -70.80306 1559 ft 92 kts 178°
2026-05-04 21:12 -33.38979 -70.80278 1559 ft 50 kts 177°
2026-05-04 21:12 -33.39239 -70.80246 1558 ft 27 kts 161°
2026-05-04 21:12 -33.39375 -70.80164 1558 ft 16 kts 147°
2026-05-04 21:13 -33.39462 -70.80097 1558 ft 13 kts 147°
2026-05-04 21:13 -33.39474 -70.80087 1558 ft 0 kts 147°
2026-05-04 21:13 -33.39475 -70.80087 1558 ft 1 kts 147°
2026-05-04 21:13 -33.39481 -70.80082 1558 ft 2 kts 147°
2026-05-04 21:14 -33.39502 -70.80062 1558 ft 5 kts 133°
2026-05-04 21:14 -33.39517 -70.80035 1558 ft 7 kts 121°
2026-05-04 21:14 -33.39534 -70.79959 1558 ft 12 kts 92°
2026-05-04 21:14 -33.39530 -70.79843 1559 ft 15 kts 88°
2026-05-04 21:15 -33.39526 -70.79719 1559 ft 15 kts 88°
2026-05-04 21:15 -33.39521 -70.79599 1559 ft 14 kts 86°
2026-05-04 21:15 -33.39515 -70.79485 1560 ft 13 kts 87°
2026-05-04 21:15 -33.39511 -70.79376 1560 ft 13 kts 87°
2026-05-04 21:16 -33.39509 -70.79328 1560 ft 2 kts 88°
2026-05-04 21:16 -33.39509 -70.79314 1560 ft 2 kts 88°
2026-05-04 21:16 -33.39509 -70.79286 1560 ft 5 kts 88°
2026-05-04 21:16 -33.39508 -70.79245 1561 ft 3 kts 91°
2026-05-04 21:17 -33.39522 -70.79217 1561 ft 5 kts 155°
2026-05-04 21:17 -33.39558 -70.79213 1561 ft 5 kts 174°
2026-05-04 21:17 -33.39586 -70.79211 1561 ft 1 kts 178°
2026-05-04 21:17 -33.39588 -70.79211 1561 ft 0 kts 178°